SDM2511 UWWW-URSS

Flight info

Callsign SDM2511
Flight time 2h 49m
Altitude 33000
Route GITEK T784 DENUD DCT URL W324 ATR/K0865F320 W324 AKT DCT IPLED DCT GOTIK DCT MEMZA DCT VENFO DCT BINOL
Aircraft B738/M-SDE2E3FGHIRWXY/LB1

Departure

Time 2026-05-07 14:10
Airport Kurumoch International Airport (UWWW)

Arrival

Time 2026-05-07 16:59
Airport Sochi International Airport (URSS)
Time Latitude Longitude Altitude Speed Heading
2026-05-07 13:51 53.51154 50.15877 446 ft 0 kts 332°
2026-05-07 13:56 53.51153 50.15878 434 ft 1 kts 332°
2026-05-07 13:56 53.51140 50.15890 446 ft 3 kts 332°
2026-05-07 13:56 53.51122 50.15906 446 ft 3 kts 332°
2026-05-07 13:56 53.51104 50.15922 428 ft 3 kts 332°
2026-05-07 13:57 53.51089 50.15939 429 ft 3 kts 301°
2026-05-07 13:57 53.51080 50.15969 429 ft 3 kts 305°
2026-05-07 13:57 53.51066 50.15992 431 ft 3 kts 332°
2026-05-07 13:57 53.51049 50.16005 437 ft 2 kts 332°
2026-05-07 13:58 53.51045 50.16009 446 ft 0 kts 330°
2026-05-07 14:00 53.51050 50.16004 435 ft 2 kts 330°
2026-05-07 14:00 53.51077 50.15983 431 ft 6 kts 345°
2026-05-07 14:01 53.51116 50.16030 431 ft 10 kts 59°
2026-05-07 14:01 53.51155 50.16157 437 ft 14 kts 79°
2026-05-07 14:01 53.51112 50.16296 441 ft 14 kts 121°
2026-05-07 14:01 53.51064 50.16429 442 ft 13 kts 121°
2026-05-07 14:02 53.51018 50.16557 436 ft 13 kts 122°
2026-05-07 14:02 53.50973 50.16679 446 ft 12 kts 121°
2026-05-07 14:02 53.50940 50.16768 440 ft 12 kts 121°
2026-05-07 14:02 53.50928 50.16801 436 ft 12 kts 121°
2026-05-07 14:03 53.50924 50.16811 446 ft 12 kts 122°
2026-05-07 14:03 53.50913 50.16842 441 ft 12 kts 122°
2026-05-07 14:03 53.50870 50.16959 441 ft 12 kts 122°
2026-05-07 14:03 53.50806 50.17050 438 ft 14 kts 160°
2026-05-07 14:04 53.50703 50.17110 438 ft 17 kts 160°
2026-05-07 14:04 53.50591 50.17177 436 ft 17 kts 161°
2026-05-07 14:04 53.50485 50.17240 436 ft 16 kts 160°
2026-05-07 14:04 53.50384 50.17302 433 ft 15 kts 160°
2026-05-07 14:05 53.50287 50.17359 438 ft 15 kts 160°
2026-05-07 14:05 53.50194 50.17415 434 ft 14 kts 160°
2026-05-07 14:05 53.50105 50.17469 437 ft 13 kts 160°
2026-05-07 14:05 53.50019 50.17521 436 ft 13 kts 160°
2026-05-07 14:06 53.49936 50.17570 437 ft 13 kts 160°
2026-05-07 14:06 53.49855 50.17619 446 ft 12 kts 160°
2026-05-07 14:06 53.49776 50.17665 446 ft 12 kts 161°
2026-05-07 14:06 53.49696 50.17712 446 ft 14 kts 160°
2026-05-07 14:07 53.49604 50.17768 442 ft 14 kts 160°
2026-05-07 14:07 53.49515 50.17822 440 ft 13 kts 160°
2026-05-07 14:07 53.49430 50.17873 443 ft 13 kts 160°
2026-05-07 14:07 53.49347 50.17923 443 ft 12 kts 158°
2026-05-07 14:08 53.49287 50.18020 439 ft 12 kts 114°
2026-05-07 14:08 53.49284 50.18159 445 ft 12 kts 77°
2026-05-07 14:08 53.49316 50.18286 443 ft 12 kts 58°
2026-05-07 14:08 53.49386 50.18320 435 ft 10 kts 345°
2026-05-07 14:09 53.49406 50.18310 443 ft 0 kts 341°
2026-05-07 14:09 53.49486 50.18263 438 ft 45 kts 340°
2026-05-07 14:09 53.50043 50.17928 437 ft 123 kts 340°
2026-05-07 14:09 53.51024 50.17369 732 ft 161 kts 344°
2026-05-07 14:10 53.52066 50.16683 1672 ft 160 kts 342°
2026-05-07 14:10 53.53142 50.16017 2457 ft 172 kts 345°
2026-05-07 14:10 53.54392 50.15294 2813 ft 207 kts 344°
2026-05-07 14:10 53.55586 50.14589 3218 ft 221 kts 343°
2026-05-07 14:11 53.57045 50.13726 3998 ft 222 kts 343°
2026-05-07 14:11 53.58497 50.12818 4925 ft 225 kts 335°
2026-05-07 14:11 53.59636 50.11048 5823 ft 232 kts 302°
2026-05-07 14:11 53.60083 50.08305 6403 ft 259 kts 269°
2026-05-07 14:12 53.60075 50.08009 6426 ft 262 kts 266°
2026-05-07 14:12 53.59535 50.04925 6997 ft 281 kts 251°
2026-05-07 14:12 53.58839 50.01860 7981 ft 281 kts 251°
2026-05-07 14:12 53.58149 49.98759 8925 ft 284 kts 252°
2026-05-07 14:13 53.57195 49.95820 9782 ft 293 kts 229°
2026-05-07 14:13 53.55518 49.93888 10632 ft 300 kts 201°
2026-05-07 14:13 53.53396 49.93406 10983 ft 324 kts 171°
2026-05-07 14:13 53.51172 49.94533 11208 ft 348 kts 157°
2026-05-07 14:14 53.48851 49.96096 11525 ft 368 kts 157°
2026-05-07 14:14 53.46440 49.97657 12252 ft 374 kts 158°
2026-05-07 14:14 53.43994 49.99168 13148 ft 376 kts 158°
2026-05-07 14:14 53.41514 50.00607 13954 ft 379 kts 161°
2026-05-07 14:15 53.38975 50.01713 14667 ft 385 kts 165°
2026-05-07 14:15 53.36341 50.02688 15361 ft 390 kts 166°
2026-05-07 14:15 53.33676 50.03641 16067 ft 394 kts 166°
2026-05-07 14:15 53.30985 50.04619 16762 ft 397 kts 166°
2026-05-07 14:16 53.28270 50.05632 17457 ft 401 kts 166°
2026-05-07 14:16 53.25527 50.06676 18153 ft 405 kts 165°
2026-05-07 14:16 53.22764 50.07742 18757 ft 409 kts 165°
2026-05-07 14:16 53.20018 50.08806 19375 ft 412 kts 165°
2026-05-07 14:17 53.17213 50.09894 19974 ft 415 kts 165°
2026-05-07 14:17 53.14389 50.10988 20568 ft 418 kts 165°
2026-05-07 14:17 53.11550 50.12087 21145 ft 421 kts 165°
2026-05-07 14:17 53.08680 50.13196 21715 ft 424 kts 165°
2026-05-07 14:18 53.05794 50.14309 22287 ft 428 kts 165°
2026-05-07 14:18 53.02888 50.15451 22853 ft 430 kts 164°
2026-05-07 14:18 52.99993 50.16750 23390 ft 433 kts 162°
2026-05-07 14:18 52.97085 50.18114 23842 ft 436 kts 162°
2026-05-07 14:19 52.94154 50.19467 24299 ft 438 kts 162°
2026-05-07 14:19 52.91191 50.20735 24695 ft 442 kts 168°
2026-05-07 14:19 52.88101 50.20812 25081 ft 450 kts 187°
2026-05-07 14:19 52.85104 50.19304 25553 ft 453 kts 203°
2026-05-07 14:20 52.82236 50.17125 26038 ft 454 kts 204°
2026-05-07 14:20 52.79352 50.14906 26420 ft 458 kts 204°
2026-05-07 14:20 52.76506 50.12739 26983 ft 456 kts 203°
2026-05-07 14:20 52.73620 50.10578 27419 ft 457 kts 203°
2026-05-07 14:21 52.70705 50.08427 27748 ft 460 kts 203°
2026-05-07 14:21 52.67768 50.06278 28044 ft 463 kts 203°
2026-05-07 14:21 52.64823 50.04125 28379 ft 465 kts 203°
2026-05-07 14:21 52.61839 50.02065 28714 ft 465 kts 196°
2026-05-07 14:22 52.58657 50.01313 29084 ft 462 kts 176°
2026-05-07 14:22 52.55514 50.02185 29623 ft 456 kts 162°
2026-05-07 14:22 52.52626 50.04213 30102 ft 452 kts 147°
2026-05-07 14:22 52.50138 50.07349 30487 ft 450 kts 137°
2026-05-07 14:23 52.47798 50.10780 30855 ft 450 kts 137°
2026-05-07 14:23 52.46268 50.13061 31092 ft 450 kts 136°
2026-05-07 14:23 52.43952 50.16514 31462 ft 449 kts 137°
2026-05-07 14:23 52.41636 50.19941 31884 ft 447 kts 137°
2026-05-07 14:24 52.39325 50.23326 32271 ft 446 kts 137°
2026-05-07 14:24 52.37003 50.26698 32642 ft 445 kts 137°
2026-05-07 14:24 52.34681 50.30050 32914 ft 446 kts 137°
2026-05-07 14:25 52.29979 50.36810 32898 ft 449 kts 137°
2026-05-07 14:25 52.25347 50.43443 32901 ft 442 kts 137°
2026-05-07 14:26 52.20717 50.50060 32904 ft 443 kts 137°
2026-05-07 14:26 52.16082 50.56667 32899 ft 442 kts 137°
2026-05-07 14:27 52.11436 50.63271 32893 ft 443 kts 137°
2026-05-07 14:27 52.06792 50.69853 32906 ft 443 kts 137°
2026-05-07 14:28 52.02136 50.76435 32885 ft 443 kts 137°
2026-05-07 14:28 51.97479 50.83000 32881 ft 444 kts 137°
2026-05-07 14:29 51.92529 50.89004 32884 ft 447 kts 150°
2026-05-07 14:29 51.87015 50.93680 32882 ft 448 kts 151°
2026-05-07 14:30 51.81514 50.98276 32886 ft 448 kts 150°
2026-05-07 14:30 51.75990 51.02954 32900 ft 448 kts 150°
2026-05-07 14:31 51.70468 51.07659 32885 ft 448 kts 150°
2026-05-07 14:31 51.64963 51.12345 32900 ft 448 kts 150°
2026-05-07 14:32 51.59450 51.17022 32887 ft 448 kts 150°
2026-05-07 14:32 51.53938 51.21686 32887 ft 447 kts 150°
2026-05-07 14:33 51.48419 51.26343 32886 ft 448 kts 150°
2026-05-07 14:33 51.42904 51.30982 32886 ft 448 kts 150°
2026-05-07 14:34 51.37415 51.35586 32899 ft 447 kts 150°
2026-05-07 14:34 51.31898 51.40203 32884 ft 447 kts 150°
2026-05-07 14:35 51.26385 51.44802 32896 ft 447 kts 150°
2026-05-07 14:35 51.20861 51.49404 32887 ft 448 kts 150°
2026-05-07 14:36 51.15190 51.53539 32884 ft 451 kts 161°
2026-05-07 14:36 51.08967 51.54975 32899 ft 455 kts 176°
2026-05-07 14:37 51.02668 51.55287 32892 ft 455 kts 176°
2026-05-07 14:37 50.93136 51.55816 32884 ft 457 kts 176°
2026-05-07 14:38 50.86766 51.56230 32886 ft 458 kts 175°
2026-05-07 14:38 50.80389 51.56656 32889 ft 460 kts 175°
2026-05-07 14:39 50.73987 51.57076 32899 ft 461 kts 175°
2026-05-07 14:39 50.67567 51.57497 32876 ft 462 kts 175°
2026-05-07 14:40 50.61136 51.57918 32881 ft 463 kts 175°
2026-05-07 14:40 50.54703 51.58337 32880 ft 463 kts 175°
2026-05-07 14:41 50.48250 51.58755 32881 ft 464 kts 175°
2026-05-07 14:41 50.41800 51.59173 32878 ft 464 kts 175°
2026-05-07 14:42 50.35342 51.59612 32880 ft 465 kts 175°
2026-05-07 14:42 50.28878 51.60060 32880 ft 465 kts 175°
2026-05-07 14:43 50.22411 51.60504 32880 ft 465 kts 175°
2026-05-07 14:43 50.15972 51.60943 32881 ft 466 kts 175°
2026-05-07 14:44 50.09492 51.61386 32880 ft 466 kts 175°
2026-05-07 14:44 50.06251 51.61606 33127 ft 470 kts 175°
2026-05-07 14:44 50.02967 51.61832 32993 ft 473 kts 176°
2026-05-07 14:45 49.96372 51.62278 32883 ft 475 kts 176°
2026-05-07 14:45 49.89768 51.62721 32861 ft 473 kts 176°
2026-05-07 14:46 49.83188 51.63164 32858 ft 472 kts 176°
2026-05-07 14:46 49.76670 51.63601 32854 ft 471 kts 176°
2026-05-07 14:47 49.70132 51.64039 32858 ft 470 kts 176°
2026-05-07 14:47 49.63610 51.64474 32868 ft 468 kts 176°
2026-05-07 14:48 49.57094 51.64908 32860 ft 469 kts 176°
2026-05-07 14:48 49.50566 51.65343 32851 ft 470 kts 176°
2026-05-07 14:49 49.44022 51.65777 32855 ft 471 kts 176°
2026-05-07 14:49 49.37471 51.66209 32849 ft 472 kts 176°
2026-05-07 14:50 49.30897 51.66642 32857 ft 474 kts 176°
2026-05-07 14:50 49.24314 51.67077 32843 ft 473 kts 176°
2026-05-07 14:51 49.17725 51.67509 32836 ft 474 kts 177°
2026-05-07 14:51 49.11182 51.67936 32840 ft 474 kts 177°
2026-05-07 14:52 49.04588 51.68362 32845 ft 474 kts 177°
2026-05-07 14:52 48.97992 51.68797 32837 ft 474 kts 177°
2026-05-07 14:53 48.91393 51.69221 32827 ft 474 kts 177°
2026-05-07 14:53 48.84810 51.69642 32824 ft 473 kts 177°
2026-05-07 14:54 48.78235 51.70064 32840 ft 472 kts 178°
2026-05-07 14:54 48.71677 51.70484 32819 ft 471 kts 178°
2026-05-07 14:55 48.65133 51.70904 32815 ft 470 kts 178°
2026-05-07 14:55 48.58601 51.71320 32820 ft 469 kts 178°
2026-05-07 14:56 48.52087 51.71735 32830 ft 468 kts 179°
2026-05-07 14:56 48.45584 51.72147 32823 ft 467 kts 179°
2026-05-07 14:57 48.39092 51.72558 32813 ft 467 kts 179°
2026-05-07 14:57 48.32608 51.72970 32803 ft 467 kts 179°
2026-05-07 14:58 48.26113 51.73376 32812 ft 467 kts 179°
2026-05-07 14:58 48.19622 51.73787 32790 ft 466 kts 179°
2026-05-07 14:59 48.13177 51.74187 32802 ft 466 kts 179°
2026-05-07 14:59 48.06697 51.74591 32806 ft 466 kts 179°
2026-05-07 15:00 48.00220 51.74995 32809 ft 466 kts 179°
2026-05-07 15:00 47.93744 51.75398 32804 ft 465 kts 179°
2026-05-07 15:01 47.87274 51.75799 32802 ft 465 kts 179°
2026-05-07 15:01 47.80814 51.76193 32793 ft 464 kts 179°
2026-05-07 15:02 47.74377 51.76579 32802 ft 462 kts 179°
2026-05-07 15:02 47.67955 51.76966 32798 ft 461 kts 179°
2026-05-07 15:03 47.61556 51.77349 32797 ft 459 kts 179°
2026-05-07 15:03 47.55174 51.77733 32807 ft 458 kts 179°
2026-05-07 15:04 47.48848 51.78110 32786 ft 458 kts 179°
2026-05-07 15:04 47.42514 51.78492 32813 ft 454 kts 179°
2026-05-07 15:05 47.36174 51.78848 32808 ft 457 kts 179°
2026-05-07 15:05 47.29789 51.79180 32827 ft 462 kts 178°
2026-05-07 15:06 47.23402 51.79577 32815 ft 457 kts 178°
2026-05-07 15:06 47.17013 51.80138 32530 ft 457 kts 174°
2026-05-07 15:07 47.13846 51.80176 33163 ft 451 kts 188°
2026-05-07 15:07 47.10759 51.79453 33362 ft 452 kts 192°
2026-05-07 15:07 47.07641 51.78609 33521 ft 458 kts 191°
2026-05-07 15:07 47.04490 51.77795 33727 ft 460 kts 191°
2026-05-07 15:08 46.99195 51.76503 33801 ft 466 kts 191°
2026-05-07 15:08 46.92834 51.75000 33814 ft 456 kts 190°
2026-05-07 15:09 46.86613 51.73547 33810 ft 452 kts 191°
2026-05-07 15:09 46.80402 51.72080 33822 ft 453 kts 190°
2026-05-07 15:10 46.74178 51.70613 33824 ft 454 kts 190°
2026-05-07 15:10 46.67931 51.69146 33827 ft 455 kts 190°
2026-05-07 15:11 46.61703 51.67685 33825 ft 451 kts 190°
2026-05-07 15:11 46.55548 51.66242 33823 ft 447 kts 191°
2026-05-07 15:12 46.49452 51.64814 33832 ft 446 kts 191°
2026-05-07 15:12 46.43324 51.63388 33835 ft 446 kts 191°
2026-05-07 15:13 46.37173 51.61958 33842 ft 448 kts 190°
2026-05-07 15:13 46.31017 51.60529 33841 ft 448 kts 191°
2026-05-07 15:14 46.24861 51.59102 33845 ft 448 kts 191°
2026-05-07 15:14 46.18712 51.57688 33846 ft 446 kts 191°
2026-05-07 15:15 46.12583 51.56275 33862 ft 445 kts 191°
2026-05-07 15:15 46.06481 51.54866 33873 ft 442 kts 191°
2026-05-07 15:16 46.00434 51.53471 33874 ft 442 kts 191°
2026-05-07 15:16 45.94327 51.52069 33882 ft 446 kts 190°
2026-05-07 15:17 45.88199 51.50684 33877 ft 443 kts 192°
2026-05-07 15:17 45.82110 51.49285 33875 ft 442 kts 191°
2026-05-07 15:18 45.76081 51.47920 33874 ft 436 kts 192°
2026-05-07 15:18 45.70093 51.46567 33894 ft 436 kts 192°
2026-05-07 15:19 45.64057 51.45198 33903 ft 441 kts 191°
2026-05-07 15:19 45.58016 51.43833 33905 ft 443 kts 191°
2026-05-07 15:20 45.51941 51.42464 33893 ft 439 kts 192°
2026-05-07 15:20 45.45929 51.41117 33903 ft 437 kts 191°
2026-05-07 15:21 45.39914 51.39767 33920 ft 439 kts 192°
2026-05-07 15:21 45.33855 51.38409 33924 ft 442 kts 192°
2026-05-07 15:22 45.27771 51.37047 33916 ft 443 kts 192°
2026-05-07 15:22 45.21681 51.35696 33923 ft 442 kts 192°
2026-05-07 15:23 45.15606 51.34346 33927 ft 440 kts 192°
2026-05-07 15:23 45.09573 51.33004 33930 ft 438 kts 192°
2026-05-07 15:24 45.03565 51.31672 33940 ft 436 kts 192°
2026-05-07 15:24 44.97595 51.30352 33946 ft 433 kts 192°
2026-05-07 15:25 44.91645 51.29044 33946 ft 431 kts 192°
2026-05-07 15:25 44.85761 51.27748 33953 ft 430 kts 192°
2026-05-07 15:26 44.79855 51.26448 33956 ft 429 kts 192°
2026-05-07 15:26 44.73947 51.25150 33947 ft 429 kts 193°
2026-05-07 15:27 44.68043 51.23859 33963 ft 429 kts 192°
2026-05-07 15:27 44.62139 51.22571 33972 ft 429 kts 192°
2026-05-07 15:28 44.56236 51.21286 33976 ft 429 kts 192°
2026-05-07 15:28 44.50377 51.20014 33986 ft 428 kts 192°
2026-05-07 15:29 44.44485 51.18735 33990 ft 428 kts 192°
2026-05-07 15:29 44.38584 51.17456 33995 ft 429 kts 192°
2026-05-07 15:30 44.32679 51.16181 33992 ft 429 kts 192°
2026-05-07 15:30 44.26777 51.14907 33991 ft 429 kts 192°
2026-05-07 15:31 44.20879 51.13637 34004 ft 429 kts 193°
2026-05-07 15:31 44.14987 51.12371 34006 ft 428 kts 193°
2026-05-07 15:32 44.09159 51.11123 34010 ft 423 kts 193°
2026-05-07 15:32 44.03345 51.09879 34019 ft 422 kts 193°
2026-05-07 15:33 43.97545 51.08639 34027 ft 421 kts 193°
2026-05-07 15:33 43.91776 51.07302 34005 ft 417 kts 200°
2026-05-07 15:34 43.89191 51.05608 34032 ft 409 kts 217°
2026-05-07 15:34 43.87033 51.03073 34031 ft 407 kts 227°
2026-05-07 15:34 43.85318 50.99968 34019 ft 407 kts 240°
2026-05-07 15:34 43.84123 50.96408 34031 ft 408 kts 246°
2026-05-07 15:35 43.82003 50.89139 34025 ft 410 kts 247°
2026-05-07 15:35 43.79884 50.81791 34016 ft 412 kts 247°
2026-05-07 15:36 43.77719 50.74431 34022 ft 413 kts 247°
2026-05-07 15:36 43.75526 50.67073 34018 ft 414 kts 246°
2026-05-07 15:37 43.73316 50.59702 34020 ft 415 kts 246°
2026-05-07 15:37 43.71101 50.52343 34029 ft 415 kts 246°
2026-05-07 15:38 43.68880 50.44985 34030 ft 414 kts 246°
2026-05-07 15:38 43.66657 50.37636 34029 ft 414 kts 246°
2026-05-07 15:39 43.64446 50.30341 34026 ft 414 kts 246°
2026-05-07 15:39 43.62224 50.23031 34039 ft 413 kts 246°
2026-05-07 15:40 43.59990 50.15709 34031 ft 414 kts 246°
2026-05-07 15:40 43.57746 50.08377 34039 ft 415 kts 246°
2026-05-07 15:41 43.55491 50.01029 34035 ft 415 kts 246°
2026-05-07 15:41 43.53239 49.93701 34027 ft 416 kts 246°
2026-05-07 15:42 43.50974 49.86358 34029 ft 416 kts 246°
2026-05-07 15:42 43.48716 49.79062 34028 ft 416 kts 246°
2026-05-07 15:43 43.46436 49.71711 34043 ft 417 kts 246°
2026-05-07 15:43 43.44157 49.64381 34044 ft 417 kts 246°
2026-05-07 15:44 43.41867 49.57036 34048 ft 418 kts 246°
2026-05-07 15:44 43.40151 49.49420 34035 ft 420 kts 259°
2026-05-07 15:45 43.39932 49.41368 34056 ft 423 kts 270°
2026-05-07 15:45 43.40296 49.33288 34042 ft 423 kts 271°
2026-05-07 15:46 43.40829 49.21162 34037 ft 423 kts 270°
2026-05-07 15:47 43.41153 49.13065 34040 ft 423 kts 270°
2026-05-07 15:47 43.41462 49.05012 34042 ft 424 kts 270°
2026-05-07 15:47 43.41614 49.00960 33522 ft 425 kts 273°
2026-05-07 15:48 43.41767 48.96927 33789 ft 420 kts 270°
2026-05-07 15:48 43.42064 48.88935 33959 ft 417 kts 270°
2026-05-07 15:48 43.42209 48.84934 34401 ft 421 kts 270°
2026-05-07 15:49 43.42356 48.80879 34247 ft 427 kts 270°
2026-05-07 15:49 43.42647 48.72648 34119 ft 433 kts 270°
2026-05-07 15:50 43.42935 48.64347 34037 ft 432 kts 270°
2026-05-07 15:50 43.43216 48.56232 34036 ft 424 kts 270°
2026-05-07 15:51 43.43489 48.48107 34051 ft 426 kts 270°
2026-05-07 15:51 43.43754 48.39953 34051 ft 426 kts 270°
2026-05-07 15:52 43.44017 48.31795 34043 ft 427 kts 270°
2026-05-07 15:52 43.44273 48.23623 34044 ft 428 kts 270°
2026-05-07 15:53 43.44522 48.15482 34058 ft 428 kts 270°
2026-05-07 15:53 43.44766 48.07261 34044 ft 430 kts 270°
2026-05-07 15:54 43.45007 47.99026 34046 ft 431 kts 270°
2026-05-07 15:54 43.45203 47.92179 34051 ft 431 kts 270°
2026-05-07 15:55 43.45434 47.83923 34051 ft 432 kts 270°
2026-05-07 15:55 43.45658 47.75659 34050 ft 432 kts 270°
2026-05-07 15:56 43.45877 47.67383 34048 ft 432 kts 270°
2026-05-07 15:56 43.46089 47.59124 34062 ft 432 kts 270°
2026-05-07 15:57 43.46297 47.50832 34052 ft 433 kts 270°
2026-05-07 15:57 43.46499 47.42539 34047 ft 434 kts 270°
2026-05-07 15:58 43.46694 47.34236 34053 ft 434 kts 270°
2026-05-07 15:58 43.46883 47.25982 34059 ft 434 kts 270°
2026-05-07 15:59 43.47066 47.17679 34050 ft 433 kts 270°
2026-05-07 15:59 43.47242 47.09386 34054 ft 434 kts 270°
2026-05-07 16:00 43.47414 47.01063 34057 ft 435 kts 270°
2026-05-07 16:00 43.47579 46.92740 34065 ft 435 kts 270°
2026-05-07 16:01 43.47736 46.84463 34060 ft 435 kts 270°
2026-05-07 16:01 43.47893 46.76130 34059 ft 434 kts 270°
2026-05-07 16:02 43.48040 46.67817 34069 ft 433 kts 270°
2026-05-07 16:02 43.48181 46.59514 34068 ft 434 kts 270°
2026-05-07 16:03 43.48317 46.51188 34073 ft 435 kts 270°
2026-05-07 16:03 43.48445 46.42893 34069 ft 436 kts 270°
2026-05-07 16:04 43.48570 46.34539 34071 ft 437 kts 270°
2026-05-07 16:04 43.48688 46.26162 34073 ft 437 kts 270°
2026-05-07 16:05 43.48801 46.17764 34074 ft 438 kts 270°
2026-05-07 16:05 43.48907 46.09430 34085 ft 439 kts 270°
2026-05-07 16:06 43.49137 46.01021 34082 ft 440 kts 274°
2026-05-07 16:06 43.49830 45.92637 34094 ft 441 kts 276°
2026-05-07 16:07 43.50586 45.84244 34099 ft 442 kts 276°
2026-05-07 16:07 43.51307 45.75826 34099 ft 443 kts 275°
2026-05-07 16:08 43.52000 45.67396 34109 ft 443 kts 275°
2026-05-07 16:08 43.52679 45.58951 34099 ft 444 kts 276°
2026-05-07 16:09 43.53353 45.50494 34097 ft 444 kts 275°
2026-05-07 16:09 43.54019 45.42059 34094 ft 445 kts 275°
2026-05-07 16:10 43.54683 45.33594 34098 ft 445 kts 275°
2026-05-07 16:10 43.55342 45.25104 34093 ft 445 kts 275°
2026-05-07 16:11 43.55996 45.16611 34107 ft 445 kts 275°
2026-05-07 16:11 43.56640 45.08113 34103 ft 445 kts 276°
2026-05-07 16:12 43.57280 44.99619 34107 ft 445 kts 275°
2026-05-07 16:12 43.57909 44.91172 34108 ft 446 kts 275°
2026-05-07 16:13 43.58535 44.82669 34115 ft 446 kts 275°
2026-05-07 16:13 43.59156 44.74156 34101 ft 446 kts 276°
2026-05-07 16:14 43.59775 44.65621 34118 ft 447 kts 276°
2026-05-07 16:14 43.60386 44.57063 34122 ft 449 kts 276°
2026-05-07 16:15 43.60996 44.48454 34111 ft 451 kts 276°
2026-05-07 16:15 43.61597 44.39879 34110 ft 452 kts 276°
2026-05-07 16:16 43.62194 44.31243 34094 ft 453 kts 276°
2026-05-07 16:16 43.62787 44.22573 34107 ft 454 kts 276°
2026-05-07 16:17 43.63378 44.13875 34105 ft 455 kts 276°
2026-05-07 16:17 43.63777 44.05153 34107 ft 456 kts 273°
2026-05-07 16:18 43.63978 43.96399 34098 ft 456 kts 272°
2026-05-07 16:18 43.64178 43.87636 34098 ft 456 kts 272°
2026-05-07 16:19 43.64407 43.78763 34098 ft 456 kts 272°
2026-05-07 16:19 43.64639 43.70149 34101 ft 455 kts 272°
2026-05-07 16:20 43.64870 43.61412 34099 ft 454 kts 272°
2026-05-07 16:20 43.65090 43.52759 34124 ft 454 kts 272°
2026-05-07 16:21 43.65305 43.44047 34120 ft 454 kts 272°
2026-05-07 16:21 43.65513 43.35337 34119 ft 454 kts 272°
2026-05-07 16:22 43.65717 43.26598 34150 ft 455 kts 272°
2026-05-07 16:22 43.65912 43.17892 34152 ft 457 kts 272°
2026-05-07 16:23 43.66101 43.09118 34149 ft 458 kts 272°
2026-05-07 16:23 43.66284 43.00304 34183 ft 460 kts 272°
2026-05-07 16:24 43.66459 42.91737 34179 ft 461 kts 272°
2026-05-07 16:24 43.66496 42.89855 34172 ft 461 kts 272°
2026-05-07 16:25 43.66671 42.80985 34188 ft 463 kts 272°
2026-05-07 16:25 43.66831 42.72094 34188 ft 463 kts 272°
2026-05-07 16:26 43.66987 42.63199 34199 ft 464 kts 272°
2026-05-07 16:26 43.67136 42.54303 34194 ft 463 kts 272°
2026-05-07 16:27 43.67280 42.45408 34200 ft 463 kts 272°
2026-05-07 16:27 43.67415 42.36522 34196 ft 462 kts 272°
2026-05-07 16:28 43.67515 42.29700 34201 ft 462 kts 272°
2026-05-07 16:28 43.67629 42.21466 34206 ft 462 kts 272°
2026-05-07 16:29 43.67747 42.12574 34204 ft 463 kts 272°
2026-05-07 16:29 43.67859 42.03664 34204 ft 463 kts 272°
2026-05-07 16:30 43.67961 41.94834 34197 ft 463 kts 272°
2026-05-07 16:30 43.68057 41.85941 34193 ft 463 kts 272°
2026-05-07 16:31 43.68146 41.77031 34205 ft 464 kts 272°
2026-05-07 16:31 43.68230 41.68110 34201 ft 464 kts 272°
2026-05-07 16:32 43.68308 41.59155 34200 ft 466 kts 272°
2026-05-07 16:32 43.68377 41.50190 33809 ft 465 kts 272°
2026-05-07 16:32 43.68408 41.45735 33534 ft 464 kts 272°
2026-05-07 16:33 43.68438 41.41266 33268 ft 465 kts 272°
2026-05-07 16:33 43.68467 41.36788 33005 ft 467 kts 272°
2026-05-07 16:33 43.68494 41.32294 32756 ft 468 kts 272°
2026-05-07 16:33 43.68519 41.27797 32489 ft 468 kts 272°
2026-05-07 16:34 43.68544 41.23309 32220 ft 467 kts 272°
2026-05-07 16:34 43.68566 41.18835 31953 ft 462 kts 272°
2026-05-07 16:34 43.68584 41.14427 31577 ft 454 kts 272°
2026-05-07 16:34 43.68601 41.10098 31165 ft 448 kts 272°
2026-05-07 16:35 43.68617 41.05817 30717 ft 443 kts 272°
2026-05-07 16:35 43.68631 41.01584 30283 ft 439 kts 272°
2026-05-07 16:35 43.68645 40.97386 29785 ft 434 kts 272°
2026-05-07 16:35 43.68656 40.93246 29363 ft 426 kts 272°
2026-05-07 16:36 43.68664 40.89227 28914 ft 421 kts 272°
2026-05-07 16:36 43.68677 40.85224 28557 ft 413 kts 272°
2026-05-07 16:36 43.68695 40.81280 28146 ft 408 kts 272°
2026-05-07 16:36 43.68714 40.77364 27703 ft 405 kts 272°
2026-05-07 16:37 43.68732 40.73476 27271 ft 406 kts 272°
2026-05-07 16:37 43.68752 40.69509 26828 ft 416 kts 272°
2026-05-07 16:37 43.68772 40.65493 26387 ft 416 kts 272°
2026-05-07 16:37 43.68785 40.61514 25926 ft 412 kts 271°
2026-05-07 16:38 43.68795 40.57579 25483 ft 407 kts 271°
2026-05-07 16:38 43.68803 40.53684 25049 ft 403 kts 271°
2026-05-07 16:38 43.68811 40.49842 24618 ft 398 kts 271°
2026-05-07 16:38 43.68815 40.47310 24331 ft 396 kts 271°
2026-05-07 16:39 43.68821 40.43527 23915 ft 392 kts 271°
2026-05-07 16:39 43.68828 40.38567 23291 ft 387 kts 271°
2026-05-07 16:39 43.68831 40.36067 22972 ft 384 kts 271°
2026-05-07 16:39 43.68834 40.32404 22552 ft 379 kts 271°
2026-05-07 16:40 43.68835 40.28830 22141 ft 374 kts 271°
2026-05-07 16:40 43.68835 40.25254 21729 ft 370 kts 271°
2026-05-07 16:40 43.68835 40.21720 21319 ft 366 kts 271°
2026-05-07 16:40 43.68833 40.18223 20922 ft 363 kts 271°
2026-05-07 16:41 43.68683 40.14754 20490 ft 362 kts 258°
2026-05-07 16:41 43.67667 40.11592 20111 ft 362 kts 234°
2026-05-07 16:41 43.65898 40.09112 19748 ft 366 kts 214°
2026-05-07 16:41 43.63633 40.07452 19372 ft 372 kts 203°
2026-05-07 16:42 43.61247 40.06011 18952 ft 376 kts 203°
2026-05-07 16:42 43.58860 40.04569 18561 ft 374 kts 203°
2026-05-07 16:42 43.56489 40.03115 18101 ft 372 kts 204°
2026-05-07 16:42 43.54141 40.01654 17673 ft 368 kts 204°
2026-05-07 16:43 43.51836 40.00211 17265 ft 367 kts 204°
2026-05-07 16:43 43.49524 39.98762 16860 ft 363 kts 204°
2026-05-07 16:43 43.47235 39.97331 16472 ft 359 kts 204°
2026-05-07 16:43 43.44965 39.95934 15935 ft 357 kts 201°
2026-05-07 16:44 43.42624 39.94800 15526 ft 353 kts 197°
2026-05-07 16:44 43.40332 39.93768 15384 ft 341 kts 199°
2026-05-07 16:44 43.38273 39.92292 15245 ft 329 kts 217°
2026-05-07 16:44 43.36387 39.90617 15076 ft 320 kts 204°
2026-05-07 16:45 43.34330 39.89507 14786 ft 315 kts 199°
2026-05-07 16:45 43.32262 39.88520 14420 ft 315 kts 199°
2026-05-07 16:45 43.30193 39.87558 14057 ft 308 kts 198°
2026-05-07 16:45 43.28185 39.86631 13415 ft 307 kts 198°
2026-05-07 16:46 43.26156 39.85696 12718 ft 308 kts 198°
2026-05-07 16:46 43.24113 39.84754 11926 ft 312 kts 198°
2026-05-07 16:46 43.22080 39.83814 11513 ft 303 kts 198°
2026-05-07 16:46 43.20101 39.82894 11029 ft 297 kts 198°
2026-05-07 16:47 43.18153 39.81985 10474 ft 296 kts 198°
2026-05-07 16:47 43.15791 39.80879 9795 ft 293 kts 198°
2026-05-07 16:47 43.13872 39.79979 9223 ft 291 kts 198°
2026-05-07 16:47 43.11956 39.79136 8701 ft 286 kts 192°
2026-05-07 16:48 43.10008 39.78682 8174 ft 283 kts 187°
2026-05-07 16:48 43.08066 39.78298 7607 ft 282 kts 188°
2026-05-07 16:48 43.06155 39.77881 7078 ft 281 kts 188°
2026-05-07 16:48 43.04243 39.77402 6576 ft 278 kts 195°
2026-05-07 16:49 43.02629 39.76044 6166 ft 277 kts 231°
2026-05-07 16:49 43.01813 39.73663 6081 ft 279 kts 259°
2026-05-07 16:49 43.01826 39.71039 6065 ft 275 kts 284°
2026-05-07 16:49 43.02620 39.68707 6018 ft 269 kts 309°
2026-05-07 16:50 43.04044 39.67111 5678 ft 264 kts 335°
2026-05-07 16:50 43.05815 39.66576 5120 ft 262 kts
2026-05-07 16:50 43.07587 39.67076 4663 ft 261 kts 23°
2026-05-07 16:50 43.09200 39.68225 4366 ft 263 kts 30°
2026-05-07 16:51 43.10776 39.69465 4260 ft 262 kts 30°
2026-05-07 16:51 43.12364 39.70722 4080 ft 264 kts 30°
2026-05-07 16:51 43.13952 39.71978 3902 ft 262 kts 30°
2026-05-07 16:51 43.15528 39.73214 3727 ft 261 kts 30°
2026-05-07 16:52 43.17082 39.74426 3549 ft 259 kts 30°
2026-05-07 16:52 43.18629 39.75630 3370 ft 253 kts 30°
2026-05-07 16:52 43.20142 39.76808 3181 ft 247 kts 30°
2026-05-07 16:52 43.21623 39.77960 2994 ft 242 kts 30°
2026-05-07 16:53 43.23075 39.79089 2818 ft 237 kts 30°
2026-05-07 16:53 43.24499 39.80197 2634 ft 233 kts 30°
2026-05-07 16:53 43.25893 39.81282 2447 ft 228 kts 30°
2026-05-07 16:53 43.27262 39.82344 2263 ft 224 kts 29°
2026-05-07 16:54 43.28610 39.83356 2116 ft 217 kts 28°
2026-05-07 16:54 43.29894 39.84313 2062 ft 202 kts 28°
2026-05-07 16:54 43.31080 39.85198 2027 ft 186 kts 28°
2026-05-07 16:54 43.32172 39.86015 2010 ft 174 kts 28°
2026-05-07 16:55 43.33207 39.86789 2019 ft 165 kts 28°
2026-05-07 16:55 43.33880 39.87293 2051 ft 159 kts 28°
2026-05-07 16:55 43.34817 39.87994 2002 ft 153 kts 28°
2026-05-07 16:55 43.35764 39.88702 1882 ft 155 kts 28°
2026-05-07 16:56 43.36711 39.89411 1666 ft 155 kts 28°
2026-05-07 16:56 43.37644 39.90110 1472 ft 152 kts 28°
2026-05-07 16:56 43.39492 39.91511 1102 ft 151 kts 28°
2026-05-07 16:57 43.40421 39.92191 865 ft 152 kts 25°
2026-05-07 16:57 43.41353 39.92892 629 ft 154 kts 29°
2026-05-07 16:57 43.42286 39.93598 396 ft 151 kts 27°
2026-05-07 16:57 43.43199 39.94283 150 ft 149 kts 28°
2026-05-07 16:58 43.44065 39.94935 73 ft 131 kts 27°
2026-05-07 16:58 43.44548 39.95268 85 ft 109 kts 26°
2026-05-07 16:59 43.45004 39.95542 93 ft 9 kts 352°
2026-05-07 16:59 43.45041 39.95523 90 ft 0 kts 334°
2026-05-07 16:59 43.45042 39.95523 90 ft 0 kts 334°
2026-05-07 17:00 43.45057 39.95505 91 ft 6 kts 309°
2026-05-07 17:00 43.45048 39.95434 90 ft 9 kts 245°
2026-05-07 17:00 43.45016 39.95343 89 ft 12 kts 246°
2026-05-07 17:01 43.44980 39.95234 86 ft 14 kts 245°
2026-05-07 17:01 43.44935 39.95108 85 ft 16 kts 236°
2026-05-07 17:01 43.44897 39.95002 78 ft 12 kts 245°
2026-05-07 17:01 43.44860 39.94890 67 ft 14 kts 245°
2026-05-07 17:02 43.44817 39.94762 67 ft 15 kts 245°
2026-05-07 17:02 43.44775 39.94645 67 ft 13 kts 245°
2026-05-07 17:02 43.44741 39.94543 74 ft 11 kts 245°
2026-05-07 17:02 43.44718 39.94451 65 ft 8 kts 284°
2026-05-07 17:03 43.44764 39.94406 69 ft 8 kts 334°
2026-05-07 17:03 43.44799 39.94383 73 ft 3 kts 334°
2026-05-07 17:03 43.44811 39.94375 73 ft 1 kts 334°
2026-05-07 17:03 43.44814 39.94373 73 ft 0 kts 334°